• In Österreich
  • Länderverzeichnis
  • Für 7 Tage
  • Wassertemperatur
  • Satellitenkarten
  • Wetterkarte
  • News
  • Widgets
  • user-avatar
    Anmelden

    Stündliche Wetter Russe

    Heute, 25 Februar, Sonntag

    Zeit Temperatur Niederschläge Wind Luftdruck Luftfeuchtigkeit
    00:00 -3°C° 0,1 mm 4 m/S 754 mmHg 86%
    01:00 -4°C° 0,1 mm 4 m/S 755 mmHg 85%
    02:00 -4°C° 0,1 mm 4 m/S 755 mmHg 85%
    03:00 -4°C° 0,1 mm 4 m/S 755 mmHg 84%
    04:00 -5°C° 0,1 mm 4 m/S 755 mmHg 83%
    05:00 -5°C° 0,1 mm 4 m/S 755 mmHg 82%
    06:00 -5°C° 0 mm 4 m/S 756 mmHg 80%
    07:00 -5°C° 0 mm 4 m/S 756 mmHg 78%
    08:00 -5°C° 0 mm 4 m/S 756 mmHg 76%
    09:00 -5°C° 0 mm 4 m/S 756 mmHg 72%
    10:00 -4°C° 0 mm 4 m/S 757 mmHg 68%
    11:00 -4°C° 0 mm 4 m/S 757 mmHg 64%
    12:00 -3°C° 0 mm 4 m/S 757 mmHg 64%
    13:00 -3°C° 0 mm 4 m/S 757 mmHg 64%
    14:00 -2°C° 0 mm 4 m/S 757 mmHg 64%
    15:00 -3°C° 0,1 mm 4 m/S 757 mmHg 68%
    16:00 -3°C° 0,1 mm 4 m/S 757 mmHg 71%
    17:00 -3°C° 0,1 mm 4 m/S 757 mmHg 75%
    18:00 -5°C° 0,2 mm 5 m/S 757 mmHg 77%
    19:00 -5°C° 0,2 mm 5 m/S 757 mmHg 79%
    20:00 -5°C° 0,2 mm 5 m/S 757 mmHg 81%
    21:00 -6°C° 0,1 mm 6 m/S 757 mmHg 81%
    22:00 -6°C° 0,1 mm 6 m/S 757 mmHg 81%
    23:00 -6°C° 0,1 mm 6 m/S 757 mmHg 80%

    Morgen, 26 Februar, Montag

    Zeit Temperatur Niederschläge Wind Luftdruck Luftfeuchtigkeit
    00:00 -7°C° 0,2 mm 7 m/S 757 mmHg 82%
    01:00 -8°C° 0,2 mm 7 m/S 757 mmHg 83%
    02:00 -8°C° 0,2 mm 7 m/S 757 mmHg 84%
    03:00 -9°C° 0,5 mm 7 m/S 756 mmHg 85%
    04:00 -9°C° 0,5 mm 7 m/S 756 mmHg 87%
    05:00 -10°C° 0,5 mm 8 m/S 756 mmHg 88%
    06:00 -11°C° 0,6 mm 8 m/S 755 mmHg 89%
    07:00 -11°C° 0,6 mm 8 m/S 755 mmHg 89%
    08:00 -11°C° 0,6 mm 8 m/S 755 mmHg 89%
    09:00 -11°C° 0,7 mm 9 m/S 755 mmHg 90%
    10:00 -11°C° 0,7 mm 9 m/S 755 mmHg 90%
    11:00 -11°C° 0,7 mm 9 m/S 755 mmHg 90%
    12:00 -11°C° 1 mm 9 m/S 754 mmHg 90%
    13:00 -11°C° 1 mm 9 m/S 754 mmHg 91%
    14:00 -11°C° 1 mm 9 m/S 753 mmHg 91%
    15:00 -11°C° 1,2 mm 8 m/S 753 mmHg 92%
    16:00 -12°C° 1,2 mm 8 m/S 753 mmHg 93%
    17:00 -12°C° 1,2 mm 8 m/S 753 mmHg 93%
    18:00 -12°C° 1,2 mm 8 m/S 753 mmHg 93%
    19:00 -12°C° 1,2 mm 7 m/S 753 mmHg 93%
    20:00 -12°C° 1,2 mm 7 m/S 753 mmHg 94%
    21:00 -12°C° 0,9 mm 7 m/S 753 mmHg 94%
    22:00 -12°C° 0,9 mm 6 m/S 753 mmHg 94%
    23:00 -12°C° 0,9 mm 6 m/S 753 mmHg 94%

    übermorgen, 27 Februar, Dienstag

    Zeit Temperatur Niederschläge Wind Luftdruck Luftfeuchtigkeit
    00:00 -12°C° 0,6 mm 6 m/S 753 mmHg 94%
    01:00 -12°C° 0,6 mm 5 m/S 752 mmHg 94%
    02:00 -12°C° 0,6 mm 5 m/S 752 mmHg 94%
    03:00 -11°C° 0,5 mm 4 m/S 752 mmHg 94%
    04:00 -11°C° 0,5 mm 4 m/S 752 mmHg 95%
    05:00 -12°C° 0,5 mm 4 m/S 752 mmHg 95%
    06:00 -12°C° 0,3 mm 4 m/S 753 mmHg 95%
    07:00 -12°C° 0,3 mm 3 m/S 753 mmHg 94%
    08:00 -12°C° 0,3 mm 3 m/S 754 mmHg 94%
    09:00 -12°C° 0,2 mm 3 m/S 754 mmHg 93%
    10:00 -11°C° 0,2 mm 4 m/S 754 mmHg 91%
    11:00 -11°C° 0,2 mm 4 m/S 755 mmHg 89%
    12:00 -10°C° 0 mm 4 m/S 755 mmHg 89%
    13:00 -10°C° 0 mm 4 m/S 754 mmHg 88%
    14:00 -9°C° 0 mm 4 m/S 754 mmHg 88%
    15:00 -8°C° 0 mm 3 m/S 755 mmHg 88%
    16:00 -8°C° 0 mm 3 m/S 755 mmHg 89%
    17:00 -8°C° 0 mm 3 m/S 755 mmHg 90%
    18:00 -8°C° 0,1 mm 2 m/S 756 mmHg 91%
    19:00 -9°C° 0,1 mm 2 m/S 756 mmHg 93%
    20:00 -9°C° 0,1 mm 2 m/S 757 mmHg 95%
    21:00 -10°C° 0 mm 2 m/S 757 mmHg 95%
    22:00 -12°C° 0 mm 2 m/S 758 mmHg 94%
    23:00 -12°C° 0 mm 2 m/S 758 mmHg 94%

    28 Februar, Mittwoch

    Zeit Temperatur Niederschläge Wind Luftdruck Luftfeuchtigkeit
    00:00 -13°C° 0 mm 2 m/S 758 mmHg 94%
    01:00 -13°C° 0 mm 2 m/S 758 mmHg 94%
    02:00 -14°C° 0 mm 2 m/S 758 mmHg 94%
    03:00 -14°C° 0 mm 2 m/S 758 mmHg 94%
    04:00 -14°C° 0 mm 2 m/S 758 mmHg 94%
    05:00 -13°C° 0 mm 2 m/S 758 mmHg 94%
    06:00 -13°C° 0 mm 2 m/S 758 mmHg 94%
    07:00 -13°C° 0 mm 2 m/S 758 mmHg 93%
    08:00 -14°C° 0 mm 2 m/S 758 mmHg 93%
    09:00 -12°C° 0,2 mm 2 m/S 758 mmHg 93%
    10:00 -12°C° 0,2 mm 3 m/S 758 mmHg 92%
    11:00 -10°C° 0,2 mm 3 m/S 758 mmHg 92%
    12:00 -10°C° 0,4 mm 3 m/S 758 mmHg 92%
    13:00 -9°C° 0,4 mm 3 m/S 757 mmHg 93%
    14:00 -9°C° 0,4 mm 3 m/S 757 mmHg 93%
    15:00 -9°C° 0,7 mm 3 m/S 757 mmHg 94%
    16:00 -8°C° 0,7 mm 2 m/S 758 mmHg 95%
    17:00 -8°C° 0,7 mm 2 m/S 758 mmHg 95%
    18:00 -9°C° 0,3 mm 2 m/S 758 mmHg 96%
    19:00 -9°C° 0,3 mm 2 m/S 759 mmHg 96%
    20:00 -9°C° 0,3 mm 2 m/S 759 mmHg 97%
    21:00 -10°C° 0,1 mm 2 m/S 760 mmHg 96%
    22:00 -10°C° 0,1 mm 2 m/S 760 mmHg 96%
    23:00 -10°C° 0,1 mm 2 m/S 761 mmHg 96%

    1 März, Donnerstag

    Zeit Temperatur Niederschläge Wind Luftdruck Luftfeuchtigkeit
    00:00 -12°C° 0 mm 2 m/S 761 mmHg 95%
    01:00 -12°C° 0 mm 2 m/S 761 mmHg 95%
    02:00 -11°C° 0 mm 1 m/S 761 mmHg 94%
    03:00 -11°C° 0 mm 1 m/S 761 mmHg 94%
    04:00 -12°C° 0 mm 1 m/S 761 mmHg 93%
    05:00 -13°C° 0 mm 1 m/S 761 mmHg 92%
    06:00 -13°C° 0 mm 1 m/S 762 mmHg 91%
    07:00 -12°C° 0 mm 1 m/S 762 mmHg 90%
    08:00 -12°C° 0 mm 1 m/S 762 mmHg 88%
    09:00 -10°C° 0 mm 1 m/S 762 mmHg 86%
    10:00 -8°C° 0 mm 1 m/S 762 mmHg 84%
    11:00 -6°C° 0 mm 1 m/S 761 mmHg 81%
    12:00 -4°C° 0 mm 1 m/S 761 mmHg 81%
    13:00 -3°C° 0 mm 1 m/S 760 mmHg 80%
    14:00 -2°C° 0 mm 1 m/S 760 mmHg 80%
    15:00 -3°C° 0 mm 1 m/S 759 mmHg 82%
    16:00 -3°C° 0 mm 1 m/S 759 mmHg 84%
    17:00 -3°C° 0 mm 1 m/S 759 mmHg 87%
    18:00 -6°C° 0 mm 1 m/S 759 mmHg 86%
    19:00 -7°C° 0 mm 1 m/S 759 mmHg 86%
    20:00 -8°C° 0 mm 1 m/S 760 mmHg 85%
    21:00 -8°C° 0 mm 1 m/S 759 mmHg 85%
    22:00 -8°C° 0 mm 1 m/S 759 mmHg 84%
    23:00 -8°C° 0 mm 1 m/S 759 mmHg 84%

    2 März, Freitag

    Zeit Temperatur Niederschläge Wind Luftdruck Luftfeuchtigkeit
    00:00 -8°C° 0 mm 1 m/S 759 mmHg 84%
    01:00 -8°C° 0 mm 1 m/S 759 mmHg 84%
    02:00 -8°C° 0 mm 1 m/S 758 mmHg 84%
    03:00 -9°C° 0 mm 1 m/S 758 mmHg 85%
    04:00 -9°C° 0 mm 1 m/S 758 mmHg 85%
    05:00 -10°C° 0 mm 1 m/S 757 mmHg 86%
    06:00 -9°C° 0 mm 1 m/S 757 mmHg 86%
    07:00 -8°C° 0 mm 1 m/S 757 mmHg 87%
    08:00 -7°C° 0 mm 1 m/S 757 mmHg 87%
    09:00 -7°C° 0 mm 2 m/S 757 mmHg 87%
    10:00 -5°C° 0 mm 2 m/S 757 mmHg 87%
    11:00 -4°C° 0 mm 2 m/S 757 mmHg 87%
    12:00 -3°C° 0 mm 2 m/S 756 mmHg 89%
    13:00 -2°C° 0 mm 2 m/S 756 mmHg 91%
    14:00 -2°C° 0 mm 2 m/S 755 mmHg 93%
    15:00 0°C° 0 mm 1 m/S 755 mmHg 93%
    16:00 +1°C° 0 mm 1 m/S 755 mmHg 94%
    17:00 +1°C° 0 mm 1 m/S 755 mmHg 94%
    18:00 0°C° 0 mm 1 m/S 755 mmHg 94%
    19:00 0°C° 0 mm 1 m/S 755 mmHg 95%
    20:00 -1°C° 0 mm 1 m/S 755 mmHg 95%
    21:00 -1°C° 0 mm 1 m/S 755 mmHg 95%
    22:00 -1°C° 0 mm 1 m/S 755 mmHg 95%
    23:00 -1°C° 0 mm 1 m/S 755 mmHg 95%
    Mehr zeigen